Regional Weather Roundup
Issued by NWS Goodland, KS

Home | Current Version | Previous Version | Text Only | Print | Product List | Glossary Off
Versions: 1 2 3 4 5 6 7 8 9 10 11 12 13 14 15 16 17 18 19 20 21 22 23 24 25 26 27 28 29 30 31 32 33 34 35 36 37 38 39 40 41 42 43 44 45 46 47 48 49 50

000
ASUS43 KGLD 190159
RWRGLD

GOODLAND FORECAST AREA HOURLY WEATHER ROUNDUP
NATIONAL WEATHER SERVICE GOODLAND KS
800 PM MDT SAT APR 18 2015

...OFFICIAL OBSERVATIONS...

CITY           SKY/WX    TMP DP  RH WIND       PRES   REMARKS
GOODLAND KS    MOCLDY    48  44  86 N12       29.81R
HILL CITY KS   CLOUDY    54  48  80 E7        29.79R
IMPERIAL NEB   CLOUDY    51  43  74 NW14      29.81R
MCCOOK NEB     CLOUDY    55  45  68 SE7G24    29.77S
AKRON CO       CLOUDY    43  40  89 N14       29.87R
BURLINGTON CO  CLOUDY    47  40  76 N9        29.82R
LIMON CO       CLOUDY    42  34  73 N8        29.85R
$$

...UNOFFICIAL OBSERVATIONS...

CITY           SKY/WX    TMP DP  RH WIND       PRES   REMARKS
COLBY KS       CLEAR     54  46  76 W6        29.78S
GOVE KS          N/A     58  32  37 MISG        N/A
LENORA KS        N/A     54  32  43 MISG        N/A
NORTON KS      CLEAR     54  46  76 E7        29.78R
SHARON SPRINGS   N/A     51  44  76 MISG        N/A
TRIBUNE KS     PTCLDY    52  45  76 NW7       29.81S
KIT CARSON CO    N/A     47  40  78 MISG        N/A
YUMA CO          N/A     46  41  83 N9          N/A
$$


USA.gov is the U.S. government's official web portal to all federal, state and local government web resources and services.